Regional Weather Roundup
Issued by NWS

Home | Current Version | Previous Version | Text Only | Print | Product List | Glossary Off
Versions: 1 2 3 4 5 6 7 8 9 10 11 12 13 14 15 16 17 18 19 20 21 22 23 24 25 26 27 28 29 30 31 32 33 34 35 36 37 38 39 40 41 42 43 44 45 46 47 48 49 50

000
ASUS43 KLSX 050059
RWRMO

WEATHER SUMMARY FOR MISSOURI
NATIONAL WEATHER SERVICE SPRINGFIELD MO
800 PM CDT MON MAY 04 2015

NOTE: "FAIR" INDICATES FEW OR NO CLOUDS BELOW 12,000 FEET WITH NO
       SIGNIFICANT WEATHER AND/OR OBSTRUCTIONS TO VISIBILITY.
       CURRENT SKY AND/OR WEATHER CONDITIONS ARE NOT AVAILABLE FOR
       CHILLICOTHE AND FARMINGTON.

MOZ001>031-035>038-043-044-053-054-050200-
...NORTHERN AND WESTERN MISSOURI...

CITY           SKY/WX    TMP DP  RH WIND       PRES   REMARKS
KANSAS CTY INT TSTM      64  63  96 N13G23    30.06R FOG
KANSAS C DTWN  CLOUDY    68  62  81 W14G21    30.05R THUNDER
LEE`S SUMMIT   MOCLDY    77  58  51 S8        30.01R
ST JOSEPH      TSTM      64  62  93 CALM      30.05R VSB 3/4
CHILLICOTHE      N/A     70  66  87 CALM      30.01S
KIRKSVILLE     CLOUDY    73  61  65 SE5       30.04S

$$
MOZ066>068-077>081-088>096-101>105-050200-
...SOUTHWEST MISSOURI...

CITY           SKY/WX    TMP DP  RH WIND       PRES   REMARKS
SPRINGFIELD    CLEAR     74  56  53 S8        30.03F
JOPLIN         CLEAR     75  59  57 S12       30.01S

$$
MOZ032>034-039>042-045>050-055>058-069>072-050200-
...CENTRAL MISSOURI...

CITY           SKY/WX    TMP DP  RH WIND       PRES   REMARKS
COLUMBIA       PTCLDY    76  59  55 SE5       30.02S
JEFFERSON CITY PTCLDY    78  57  48 E5        30.01S
ROLLA          CLEAR     73  55  53 S9        30.04S
SEDALIA        MOCLDY    77  59  53 CALM      30.04R
OSAGE BEACH    PTCLDY    77  54  44 S6        30.03R

$$
MOZ051-052-059>065-050200-
...EAST CENTRAL MISSOURI...

CITY           SKY/WX    TMP DP  RH WIND       PRES   REMARKS
ST LOUIS INTL  MOCLDY    82  53  36 S7        30.06R
SPIRIT OF STL  PTCLDY    77  56  48 S3        30.03R
ST CHARLES     CLOUDY    80  56  43 S6        30.04R

$$
MOZ072>076-082>087-097>100-106>115-050200-
...SOUTH CENTRAL AND SOUTHEAST MISSOURI...

CITY           SKY/WX    TMP DP  RH WIND       PRES   REMARKS
CAPE GIRARDEAU CLEAR     76  54  46 S9        30.09F
FARMINGTON     CLEAR     73  54  49 S7        30.12S
POPLAR BLUFF   CLEAR     76  54  46 S8        30.08F
WEST PLAINS    CLEAR     74  53  48 S8        30.09F

$$


USA.gov is the U.S. government's official web portal to all federal, state and local government web resources and services.